Flag for Finland Weather past 2 weeks in Rovaniemi, Finland

Now
54 °F

Passing clouds.


Feels Like: 52 °F
Forecast: 37 / 54 °F
Wind: 6 mph from Northwest

Location: Rovaniemi Airport

Current Time: May 25, 2015 at 7:20:26 PM

Latest Report: May 25, 2015 at 6:50 PM


Visibility: N/A

Pressure: 29.80 "Hg

Humidity: 38%

Dew point: 28 °F

Location of RovaniemiLocation

Historic Weather in Rovaniemi — Graph

°F

Rovaniemi temperature yesterday

Maximum temperature yesterday: 46 °F (at 5:50 PM)
Minimum temperature yesterday: 34 °F (at 5:50 AM)
Average temperature yesterday: 40 °F

Past Weeks' High & Low Weather Summary

 TemperatureHumidityPressure
High57 °F (May 22, 3:20 PM)100% (May 12, 1:20 AM)29.95 "Hg (May 12, 1:20 AM)
Low30 °F (May 16, 3:20 AM)35% (May 10, 6:20 PM)29.21 "Hg (May 23, 4:50 PM)
Average42 °F81%29.68 "Hg
* Reported May 10 6:20 PM — May 25 6:20 PM, Rovaniemi, Weather by CustomWeather, © 2015

Note: Actual official high and low records may vary slightly from our data, if they occured in-between our weather recording intervals... More about our weather records

Advertising

Rovaniemi weather history for previous 24 hours

 ConditionsComfort  
Time TempWeatherWind HumidityBarometerVisibility
6:20 PM
Mon, May 25
54 °FPassing clouds.7 mph41%29.80 "HgN/A
5:50 PM54 °FSunny.7 mph38%29.80 "Hg10 mi
5:20 PM54 °FPassing clouds.7 mph38%29.80 "HgN/A
4:50 PM54 °FSunny.6 mph35%29.80 "Hg10 mi
4:20 PM54 °FSunny.6 mph35%29.80 "Hg10 mi
3:50 PM54 °FPassing clouds.12 mph38%29.80 "HgN/A
3:20 PM54 °FPassing clouds.10 mph38%29.80 "HgN/A
2:50 PM52 °FPassing clouds.10 mph35%29.80 "HgN/A
2:20 PM52 °FSunny.6 mph41%29.80 "Hg10 mi
1:50 PM50 °FPassing clouds.9 mph40%29.80 "HgN/A
1:20 PM50 °FPassing clouds.7 mph40%29.80 "HgN/A
12:50 PM50 °FPassing clouds.7 mph43%29.80 "HgN/A
12:20 PM48 °FPassing clouds.9 mph43%29.80 "HgN/A
11:50 AM48 °FPassing clouds.10 mph43%29.80 "HgN/A
11:20 AM48 °FScattered clouds.7 mph46%29.80 "HgN/A
10:50 AM46 °FPassing clouds.9 mph46%29.80 "HgN/A
10:20 AM46 °FScattered clouds.8 mph46%29.77 "HgN/A
9:50 AM46 °FScattered clouds.8 mph50%29.77 "HgN/A
9:20 AM45 °FPassing clouds.7 mph49%29.77 "HgN/A
8:50 AM43 °FPassing clouds.5 mph49%29.77 "HgN/A
8:20 AM43 °FSunny.3 mph53%29.77 "Hg10 mi
7:50 AM41 °FSunny.3 mph57%29.77 "Hg10 mi
7:20 AM39 °FPassing clouds.7 mph61%29.74 "HgN/A
6:50 AM39 °FSunny.8 mph61%29.74 "Hg10 mi
6:20 AM39 °FSunny.7 mph61%29.74 "Hg10 mi
5:50 AM37 °FSunny.7 mph65%29.74 "Hg10 mi
5:20 AM37 °FSunny.7 mph65%29.74 "Hg10 mi
4:50 AM37 °FSunny.8 mph60%29.74 "Hg10 mi
4:20 AM37 °FSunny.9 mph60%29.74 "Hg10 mi
3:50 AM37 °FSunny.10 mph60%29.71 "Hg10 mi
3:20 AM37 °FClear.8 mph65%29.71 "Hg10 mi
2:50 AM37 °FClear.8 mph65%29.71 "Hg10 mi
2:20 AM37 °FClear.6 mph65%29.71 "Hg10 mi
1:50 AM37 °FClear.3 mph65%29.71 "Hg10 mi
1:20 AM39 °FPassing clouds.3 mph65%29.71 "HgN/A
12:20 AM39 °FSunny.3 mph65%29.71 "Hg10 mi
11:50 PM
Sun, May 24
39 °FSunny.2 mph65%29.71 "Hg10 mi
11:20 PM41 °FSunny.3 mph61%29.68 "Hg10 mi
10:50 PM41 °FSunny.6 mph57%29.68 "Hg10 mi
10:20 PM43 °FSunny.8 mph57%29.68 "Hg10 mi
9:50 PM45 °FSunny.9 mph49%29.68 "Hg10 mi
9:20 PM46 °FPassing clouds.10 mph53%29.68 "HgN/A
8:50 PM46 °FPassing clouds.7 mph53%29.65 "HgN/A
8:20 PM46 °FSunny.9 mph53%29.65 "Hg10 mi
7:50 PM46 °FSunny.9 mph53%29.65 "Hg10 mi
7:20 PM46 °FScattered clouds.10 mph53%29.65 "HgN/A
Weather by CustomWeather, © 2015

See weather overviewHow to use our weather pages